#timestamp,LO_Frequency,Hit,StdDev 
1604516415.4,286046995.8,N
1604516435.3,286046993.8,Y
1604516455.1,286046994.9,P
1604516456.0,286046994.9,P
1604516475.8,286046998.4,N
1604516495.7,286046999.5,N
1604516515.5,286046997.5,N
1604516535.3,286046997.0,N
1604516555.2,286046999.1,N
1604516575.0,286047002.3,N
1604516575.9,286047002.3,N
1604516595.8,286046999.8,N
1604516615.6,286047000.6,N
1604516635.4,286046998.1,N
1604516655.3,286047000.0,N
1604516675.1,286046996.5,N
1604516695.8,286047000.6,N
1604516715.7,286047000.1,N
1604516735.5,286046996.6,N
1604516755.4,286046998.7,N
1604516775.2,286046998.9,N
1604516795.0,286046999.0,N
1604516795.9,286046999.0,N
1604516815.8,286047000.7,N
1604516835.6,286047000.7,N
1604516855.4,286046996.7,N
1604516875.3,286046999.5,N
1604516895.1,286046998.7,N
1604516915.9,286046998.8,N
1604516935.7,286047000.5,N
1604516955.5,286047000.2,N
1604516975.4,286046999.1,N
1604516995.2,286046995.3,N
1604517015.0,286046998.4,N
1604517015.9,286046998.4,N
1604517035.8,286047001.9,N
1604517055.6,286047000.1,N
1604517075.5,286046999.3,N
1604517095.3,286046999.9,N
1604517115.1,286047003.4,N
1604517135.9,286047000.3,N
1604517155.7,286047003.8,N
1604517175.5,286047001.6,N
1604517195.4,286047003.4,N
1604517215.2,286047003.6,N
1604517235.0,286047004.5,N
1604517236.0,286047004.5,N
1604517255.8,286047004.0,N
1604517275.6,286047001.8,N
1604517295.5,286047000.8,N
1604517315.3,286047000.1,N
1604517335.1,286047002.1,N
1604517355.9,286047002.2,N
1604517375.7,286046999.9,N
1604517395.6,286046999.8,N
1604517415.4,286047001.2,N
1604517435.2,286046998.4,N
1604517455.1,286046995.9,N
1604517456.0,286046995.9,N
1604517475.8,286046995.0,N
1604517495.6,286046997.5,N
1604517515.5,286047000.7,N
1604517565.3,286047001.2,E
1604517575.3,286046996.5,N
1604517595.1,286046999.6,P
1604517615.8,286047000.6,N
1604517635.7,286046999.9,N
1604517655.5,286047001.0,N
1604517675.4,286047000.5,N
1604517695.2,286047001.8,N
1604517715.0,286047000.3,N
1604517715.9,286047000.3,N
1604517735.8,286047003.2,N
1604517755.6,286047000.0,N
1604517775.4,286047000.1,N
1604517795.3,286047003.6,N
1604517815.1,286047002.6,N
1604517835.9,286046998.0,N
1604517855.7,286046995.4,N
1604517875.5,286047002.7,N
1604517895.4,286046998.7,N
1604517915.2,286046996.0,N
1604517935.0,286046997.5,N
1604517935.9,286046997.5,N
1604517955.8,286046996.4,N
1604517975.6,286046996.0,N
1604517995.4,286046997.0,N
1604518015.3,286047002.7,N
1604518035.1,286047000.9,N
1604518055.9,286047000.6,N
1604518075.7,286046997.8,N
1604518095.5,286046995.3,N
1604518115.4,286046999.4,N
1604518135.2,286046998.4,N
1604518155.0,286046998.9,N
1604518156.0,286046998.9,N
1604518175.8,286046998.7,N
1604518195.6,286047000.9,N
1604518215.5,286046999.4,N
1604518235.3,286046997.5,N
1604518255.1,286046998.1,N
1604518275.9,286047000.9,N
1604518295.7,286046999.9,N
1604518315.6,286046998.4,N
1604518335.4,286046998.5,N
1604518355.2,286046999.7,N
1604518375.1,286047004.0,N
1604518376.0,286047004.0,N
1604518395.8,286047003.8,N
1604518415.6,286047001.7,N
1604518435.5,286047000.7,N
1604518455.3,286046997.5,N
1604518475.2,286046997.1,N
1604518495.9,286046995.8,N
1604518515.7,286046996.0,N
1604518535.6,286046996.6,N
1604518555.4,286047001.0,N
1604518575.2,286046998.4,N
1604518595.1,286046995.0,N
1604518596.0,286046995.0,N
1604518615.8,286047002.3,N
1604518635.7,286047000.2,N
1604518655.5,286046998.7,N
1604518675.3,286046996.7,N
1604518695.2,286046998.9,N
1604518715.0,286046998.8,N
1604518715.9,286046998.8,N
1604518735.7,286046998.7,N
1604518755.6,286046998.5,N
1604518775.4,286047000.8,N
1604518795.3,286046998.5,N
1604518815.1,286046997.5,N
1604518816.0,286046997.5,N
1604518835.8,286046997.7,N
1604518855.7,286046997.9,N
1604518875.5,286046998.4,N
1604518895.4,286046999.4,N
1604518915.2,286046998.0,N
1604518935.0,286046995.7,N
1604518935.9,286046995.7,N
1604518955.8,286046997.5,N
1604518975.6,286046995.5,N
1604518995.4,286046999.0,N
1604519015.3,286046999.1,N
1604519035.1,286046998.7,N
1604519055.9,286046996.6,N
1604519075.7,286046996.9,N
1604519095.5,286047001.2,N
1604519115.4,286047001.4,N
1604519135.2,286047000.2,N
1604519155.0,286046996.7,N
1604519155.9,286046996.7,N
1604519175.8,286046998.9,N
1604519195.6,286046998.1,N
1604519215.5,286047002.2,N
1604519235.3,286047004.4,N
1604519255.1,286047004.0,N
1604519275.9,286047002.7,N
1604519295.7,286047001.0,N
1604519315.6,286047004.0,N
1604519335.4,286047002.1,N
1604519355.2,286046998.2,N
1604519375.1,286046997.1,N
1604519376.0,286046997.1,N
1604519395.8,286046997.4,N
1604519415.6,286046998.6,N
1604519435.5,286046997.8,N
1604519455.3,286046998.6,N
1604519475.2,286046997.2,N
1604519495.9,286046996.7,N
1604519515.7,286046997.8,N
1604519535.6,286046998.3,N
1604519555.4,286046998.3,N
1604519575.2,286046994.9,N
1604519595.1,286046997.9,N
1604519596.0,286046997.9,N
1604519615.8,286047000.4,N
1604519635.7,286047000.0,N
1604519655.5,286047002.0,N
1604519675.3,286047002.5,N
1604519695.2,286047002.5,N
1604519715.0,286047001.8,N
1604519715.9,286047001.8,N
1604519735.8,286047003.5,N
1604519755.6,286047004.3,N
1604519775.4,286047005.9,N
1604519795.3,286047003.3,N
1604519815.1,286047001.5,N
1604519835.8,286047004.1,N
1604519855.7,286047003.0,N
1604519875.5,286047005.1,N
1604519895.4,286047004.9,N
1604519915.2,286047008.5,N
1604519935.0,286047007.1,N
1604519935.9,286047007.1,N
1604519955.8,286047004.0,N
1604519975.6,286047000.9,N
1604519995.4,286046996.6,N
